OMD8286 LCLK-LZKZ

Flight info

Callsign OMD8286
Flight time 1h 40m
Altitude 32000
Route BONEK DCT TOMBI UA16 EKSEN UL610 OSGED UL620 APSER UL610 YAA UA16 FENER UT264 TUDBU Q26 UPAMA DCT ULMIN DCT PERIT DCT SUFAX
Aircraft MD82/M-SDFGIRWY/C

Departure

Time 2026-04-28 11:02
Airport Larnaca International Airport (LCLK)

Arrival

Time 2026-04-28 12:42
Airport Košice International Airport (LZKZ)
Time Latitude Longitude Altitude Speed Heading
2026-04-28 10:37 34.86808 33.61056 16 ft 0 kts 48°
2026-04-28 10:51 34.86793 33.61037 16 ft 4 kts 49°
2026-04-28 10:52 34.86777 33.61010 17 ft 4 kts 61°
2026-04-28 10:52 34.86767 33.60981 20 ft 4 kts 74°
2026-04-28 10:52 34.86762 33.60952 17 ft 1 kts 85°
2026-04-28 10:52 34.86762 33.60946 16 ft 0 kts 85°
2026-04-28 10:54 34.86761 33.60950 16 ft 1 kts 107°
2026-04-28 10:54 34.86740 33.60985 18 ft 9 kts 131°
2026-04-28 10:55 34.86680 33.61050 16 ft 13 kts 137°
2026-04-28 10:55 34.86657 33.61139 16 ft 11 kts 70°
2026-04-28 10:55 34.86704 33.61212 16 ft 11 kts 45°
2026-04-28 10:55 34.86775 33.61297 18 ft 18 kts 45°
2026-04-28 10:56 34.86885 33.61431 16 ft 26 kts 45°
2026-04-28 10:56 34.87025 33.61604 15 ft 31 kts 45°
2026-04-28 10:56 34.87173 33.61785 16 ft 30 kts 45°
2026-04-28 10:56 34.87316 33.61958 15 ft 29 kts 45°
2026-04-28 10:57 34.87453 33.62128 14 ft 28 kts 45°
2026-04-28 10:57 34.87587 33.62291 14 ft 27 kts 44°
2026-04-28 10:57 34.87717 33.62448 13 ft 26 kts 45°
2026-04-28 10:57 34.87842 33.62603 13 ft 25 kts 45°
2026-04-28 10:58 34.87964 33.62751 13 ft 24 kts 45°
2026-04-28 10:58 34.88083 33.62895 12 ft 24 kts 45°
2026-04-28 10:58 34.88198 33.63036 12 ft 23 kts 44°
2026-04-28 10:58 34.88310 33.63173 12 ft 23 kts 44°
2026-04-28 10:59 34.88413 33.63296 11 ft 14 kts 45°
2026-04-28 10:59 34.88433 33.63394 11 ft 12 kts 122°
2026-04-28 10:59 34.88377 33.63465 12 ft 11 kts 135°
2026-04-28 10:59 34.88316 33.63517 11 ft 11 kts 172°
2026-04-28 11:00 34.88270 33.63486 11 ft 0 kts 226°
2026-04-28 11:00 34.88269 33.63485 11 ft 0 kts 226°
2026-04-28 11:00 34.88264 33.63478 11 ft 4 kts 226°
2026-04-28 11:01 34.88152 33.63341 11 ft 47 kts 225°
2026-04-28 11:01 34.87783 33.62890 15 ft 102 kts 225°
2026-04-28 11:01 34.87170 33.62146 17 ft 145 kts 224°
2026-04-28 11:01 34.86379 33.61194 122 ft 171 kts 224°
2026-04-28 11:02 34.85529 33.60107 529 ft 180 kts 233°
2026-04-28 11:02 34.84958 33.58729 1078 ft 186 kts 252°
2026-04-28 11:02 34.84848 33.57160 1447 ft 190 kts 274°
2026-04-28 11:02 34.85143 33.55583 1714 ft 194 kts 286°
2026-04-28 11:03 34.85824 33.54131 1896 ft 204 kts 309°
2026-04-28 11:03 34.86782 33.52801 2021 ft 218 kts 309°
2026-04-28 11:03 34.87847 33.51329 2028 ft 239 kts 309°
2026-04-28 11:03 34.88920 33.49742 2302 ft 250 kts 308°
2026-04-28 11:04 34.90053 33.48052 2386 ft 258 kts 308°
2026-04-28 11:04 34.91163 33.46361 2431 ft 256 kts 307°
2026-04-28 11:04 34.92241 33.44690 2392 ft 252 kts 308°
2026-04-28 11:04 34.93196 33.42943 2682 ft 244 kts 293°
2026-04-28 11:05 34.93810 33.41019 3211 ft 242 kts 289°
2026-04-28 11:05 34.94365 33.39079 3667 ft 244 kts 289°
2026-04-28 11:05 34.94896 33.37138 4185 ft 240 kts 288°
2026-04-28 11:05 34.95389 33.35225 4781 ft 233 kts 289°
2026-04-28 11:06 34.95880 33.33368 5397 ft 228 kts 288°
2026-04-28 11:06 34.96383 33.31551 5944 ft 227 kts 289°
2026-04-28 11:06 34.96913 33.29699 6251 ft 236 kts 289°
2026-04-28 11:06 34.97462 33.27777 6536 ft 245 kts 289°
2026-04-28 11:07 34.98030 33.25773 6766 ft 256 kts 289°
2026-04-28 11:07 34.98622 33.23674 7004 ft 266 kts 289°
2026-04-28 11:07 34.99237 33.21509 7303 ft 273 kts 289°
2026-04-28 11:07 34.99857 33.19337 7857 ft 269 kts 289°
2026-04-28 11:08 35.00473 33.17180 8173 ft 276 kts 289°
2026-04-28 11:08 35.01103 33.14971 8666 ft 280 kts 289°
2026-04-28 11:08 35.01757 33.12688 8903 ft 287 kts 289°
2026-04-28 11:08 35.02418 33.10386 9351 ft 291 kts 289°
2026-04-28 11:09 35.03097 33.08005 9576 ft 305 kts 289°
2026-04-28 11:09 35.03811 33.05507 9745 ft 318 kts 289°
2026-04-28 11:09 35.04557 33.02905 9901 ft 332 kts 289°
2026-04-28 11:09 35.05336 33.00191 10039 ft 345 kts 289°
2026-04-28 11:10 35.06144 32.97381 10182 ft 357 kts 289°
2026-04-28 11:10 35.06983 32.94465 10337 ft 370 kts 290°
2026-04-28 11:10 35.08023 32.91536 10478 ft 383 kts 297°
2026-04-28 11:10 35.09341 32.88653 10622 ft 395 kts 300°
2026-04-28 11:11 35.10750 32.85782 11311 ft 390 kts 301°
2026-04-28 11:11 35.12131 32.82999 12365 ft 374 kts 300°
2026-04-28 11:11 35.13437 32.80347 13595 ft 355 kts 300°
2026-04-28 11:11 35.14652 32.77841 14485 ft 342 kts 300°
2026-04-28 11:12 35.15851 32.75338 14963 ft 341 kts 300°
2026-04-28 11:12 35.17049 32.72808 15285 ft 345 kts 299°
2026-04-28 11:12 35.18244 32.70262 15699 ft 346 kts 299°
2026-04-28 11:12 35.19444 32.67689 16009 ft 350 kts 299°
2026-04-28 11:13 35.20654 32.65092 16327 ft 354 kts 299°
2026-04-28 11:13 35.21875 32.62477 16749 ft 353 kts 299°
2026-04-28 11:13 35.23094 32.59865 17146 ft 355 kts 299°
2026-04-28 11:13 35.24324 32.57229 17391 ft 360 kts 300°
2026-04-28 11:14 35.25574 32.54555 17736 ft 362 kts 300°
2026-04-28 11:14 35.26826 32.51880 18155 ft 362 kts 300°
2026-04-28 11:14 35.28081 32.49204 18511 ft 363 kts 300°
2026-04-28 11:14 35.29339 32.46508 18772 ft 366 kts 299°
2026-04-28 11:15 35.30602 32.43789 19072 ft 368 kts 299°
2026-04-28 11:15 35.31868 32.41054 19358 ft 371 kts 299°
2026-04-28 11:15 35.33143 32.38299 19634 ft 373 kts 299°
2026-04-28 11:15 35.34424 32.35533 19971 ft 374 kts 299°
2026-04-28 11:16 35.35705 32.32770 20369 ft 373 kts 299°
2026-04-28 11:16 35.36990 32.29998 20667 ft 374 kts 299°
2026-04-28 11:16 35.38281 32.27213 20943 ft 377 kts 299°
2026-04-28 11:16 35.39583 32.24404 21184 ft 381 kts 299°
2026-04-28 11:17 35.40897 32.21571 21507 ft 382 kts 300°
2026-04-28 11:17 35.42208 32.18746 21893 ft 382 kts 300°
2026-04-28 11:17 35.43523 32.15908 22161 ft 384 kts 299°
2026-04-28 11:17 35.44847 32.13049 22408 ft 387 kts 299°
2026-04-28 11:18 35.46180 32.10169 22719 ft 389 kts 299°
2026-04-28 11:18 35.47518 32.07279 23016 ft 390 kts 299°
2026-04-28 11:18 35.48863 32.04373 23279 ft 393 kts 299°
2026-04-28 11:18 35.50209 32.01450 23578 ft 394 kts 299°
2026-04-28 11:19 35.51539 31.98547 23815 ft 396 kts 299°
2026-04-28 11:19 35.52890 31.95591 24063 ft 397 kts 299°
2026-04-28 11:19 35.54242 31.92635 24318 ft 398 kts 299°
2026-04-28 11:19 35.55600 31.89666 24550 ft 399 kts 299°
2026-04-28 11:20 35.56965 31.86685 24785 ft 401 kts 299°
2026-04-28 11:20 35.58336 31.83692 25018 ft 402 kts 299°
2026-04-28 11:20 35.59711 31.80690 25242 ft 404 kts 299°
2026-04-28 11:20 35.61091 31.77677 25452 ft 406 kts 299°
2026-04-28 11:21 35.62477 31.74651 25701 ft 406 kts 299°
2026-04-28 11:21 35.63864 31.71619 25921 ft 407 kts 299°
2026-04-28 11:21 35.65256 31.68576 26130 ft 409 kts 299°
2026-04-28 11:21 35.66654 31.65520 26341 ft 411 kts 299°
2026-04-28 11:22 35.68054 31.62456 26553 ft 412 kts 299°
2026-04-28 11:22 35.69459 31.59378 26770 ft 413 kts 299°
2026-04-28 11:22 35.70863 31.56288 26980 ft 414 kts 299°
2026-04-28 11:22 35.72265 31.53186 27204 ft 415 kts 298°
2026-04-28 11:23 35.73667 31.50079 27413 ft 416 kts 298°
2026-04-28 11:23 35.75077 31.46955 27593 ft 418 kts 298°
2026-04-28 11:23 35.76475 31.43857 27781 ft 420 kts 298°
2026-04-28 11:23 35.77894 31.40719 28006 ft 420 kts 298°
2026-04-28 11:24 35.79318 31.37570 28201 ft 421 kts 298°
2026-04-28 11:24 35.80749 31.34405 28378 ft 423 kts 298°
2026-04-28 11:24 35.82183 31.31234 28569 ft 424 kts 298°
2026-04-28 11:24 35.83621 31.28052 28729 ft 426 kts 298°
2026-04-28 11:25 35.85065 31.24853 28931 ft 427 kts 298°
2026-04-28 11:25 35.86512 31.21649 29163 ft 427 kts 298°
2026-04-28 11:25 35.87955 31.18449 29338 ft 428 kts 298°
2026-04-28 11:26 35.90861 31.11939 29203 ft 434 kts 298°
2026-04-28 11:26 35.93675 31.05457 29510 ft 421 kts 298°
2026-04-28 11:26 35.95078 31.02285 29793 ft 420 kts 298°
2026-04-28 11:27 35.96497 30.99121 30066 ft 420 kts 298°
2026-04-28 11:27 35.97901 30.96020 30321 ft 419 kts 298°
2026-04-28 11:27 35.99327 30.92888 30568 ft 419 kts 298°
2026-04-28 11:27 36.00798 30.89780 30812 ft 418 kts 306°
2026-04-28 11:28 36.02817 30.87206 31070 ft 418 kts 324°
2026-04-28 11:28 36.05411 30.85615 31332 ft 419 kts 343°
2026-04-28 11:28 36.08294 30.85146 31590 ft 421 kts
2026-04-28 11:28 36.11183 30.85726 31777 ft 423 kts 11°
2026-04-28 11:29 36.14084 30.86320 31852 ft 423 kts
2026-04-28 11:29 36.19939 30.85674 31915 ft 426 kts 346°
2026-04-28 11:30 36.25759 30.83977 31932 ft 434 kts 343°
2026-04-28 11:30 36.34652 30.80983 31930 ft 448 kts 343°
2026-04-28 11:31 36.40741 30.78990 31927 ft 457 kts 343°
2026-04-28 11:31 36.46920 30.77010 31925 ft 464 kts 343°
2026-04-28 11:32 36.53206 30.75001 31927 ft 468 kts 343°
2026-04-28 11:32 36.59542 30.72969 31928 ft 471 kts 343°
2026-04-28 11:33 36.65905 30.70919 31930 ft 473 kts 343°
2026-04-28 11:33 36.72291 30.68860 31933 ft 474 kts 343°
2026-04-28 11:34 36.77608 30.67143 31932 ft 475 kts 343°
2026-04-28 11:34 36.84006 30.65068 31931 ft 475 kts 343°
2026-04-28 11:35 36.91449 30.62647 31932 ft 476 kts 343°
2026-04-28 11:35 36.96814 30.60907 31934 ft 476 kts 343°
2026-04-28 11:36 37.03222 30.58825 31937 ft 476 kts 343°
2026-04-28 11:36 37.09627 30.56737 31938 ft 476 kts 343°
2026-04-28 11:37 37.15994 30.54658 31961 ft 475 kts 342°
2026-04-28 11:37 37.22392 30.52568 31951 ft 475 kts 343°
2026-04-28 11:38 37.28803 30.50462 31961 ft 475 kts 343°
2026-04-28 11:38 37.35205 30.48358 31960 ft 475 kts 343°
2026-04-28 11:39 37.41567 30.46270 31963 ft 475 kts 343°
2026-04-28 11:39 37.47966 30.44166 31969 ft 475 kts 343°
2026-04-28 11:40 37.54367 30.42056 31985 ft 475 kts 342°
2026-04-28 11:40 37.60772 30.39938 31994 ft 475 kts 343°
2026-04-28 11:41 37.67177 30.37821 32009 ft 476 kts 342°
2026-04-28 11:41 37.73544 30.35703 32011 ft 476 kts 342°
2026-04-28 11:42 37.79945 30.33578 32015 ft 475 kts 342°
2026-04-28 11:42 37.86340 30.31451 32020 ft 475 kts 342°
2026-04-28 11:43 37.92744 30.29320 32012 ft 475 kts 342°
2026-04-28 11:43 37.99130 30.27186 31996 ft 474 kts 342°
2026-04-28 11:44 38.05505 30.25056 32009 ft 474 kts 342°
2026-04-28 11:44 38.11892 30.22916 32009 ft 474 kts 342°
2026-04-28 11:45 38.18274 30.20769 32008 ft 475 kts 342°
2026-04-28 11:45 38.24663 30.18621 32005 ft 475 kts 342°
2026-04-28 11:46 38.31018 30.16483 32011 ft 475 kts 342°
2026-04-28 11:46 38.37414 30.14329 32004 ft 475 kts 342°
2026-04-28 11:47 38.43803 30.12169 32004 ft 475 kts 342°
2026-04-28 11:47 38.50201 30.09996 32004 ft 475 kts 342°
2026-04-28 11:48 38.56600 30.07824 32007 ft 475 kts 342°
2026-04-28 11:48 38.63000 30.05649 32004 ft 476 kts 342°
2026-04-28 11:49 38.69287 30.03514 32005 ft 476 kts 342°
2026-04-28 11:49 38.75685 30.01327 32002 ft 476 kts 342°
2026-04-28 11:50 38.82083 29.99142 32002 ft 475 kts 342°
2026-04-28 11:50 38.88468 29.96954 32003 ft 475 kts 342°
2026-04-28 11:51 38.94852 29.94759 32003 ft 475 kts 342°
2026-04-28 11:51 39.01241 29.92566 32005 ft 475 kts 342°
2026-04-28 11:52 39.07632 29.90368 32006 ft 475 kts 342°
2026-04-28 11:52 39.14018 29.88167 32004 ft 475 kts 342°
2026-04-28 11:53 39.20400 29.85962 32015 ft 475 kts 342°
2026-04-28 11:53 39.26783 29.83767 32002 ft 475 kts 342°
2026-04-28 11:54 39.33171 29.81584 32010 ft 475 kts 342°
2026-04-28 11:54 39.39548 29.79371 32015 ft 474 kts 342°
2026-04-28 11:55 39.45917 29.77142 32021 ft 473 kts 342°
2026-04-28 11:55 39.52233 29.74933 32014 ft 473 kts 342°
2026-04-28 11:56 39.58582 29.72629 32024 ft 471 kts 337°
2026-04-28 11:56 39.64589 29.69292 32030 ft 469 kts 332°
2026-04-28 11:57 39.70511 29.65752 32034 ft 468 kts 333°
2026-04-28 11:57 39.76472 29.62323 32037 ft 469 kts 334°
2026-04-28 11:58 39.82431 29.58975 32039 ft 469 kts 334°
2026-04-28 11:58 39.88420 29.55605 32064 ft 469 kts 334°
2026-04-28 11:59 39.94309 29.52233 32057 ft 467 kts 334°
2026-04-28 11:59 40.00223 29.48743 32066 ft 466 kts 334°
2026-04-28 12:00 40.06131 29.45250 32082 ft 466 kts 334°
2026-04-28 12:00 40.12046 29.41763 32082 ft 464 kts 334°
2026-04-28 12:01 40.17916 29.38305 32070 ft 463 kts 334°
2026-04-28 12:01 40.23749 29.34868 32073 ft 463 kts 334°
2026-04-28 12:02 40.29622 29.31395 32075 ft 463 kts 334°
2026-04-28 12:02 40.35493 29.27902 32088 ft 462 kts 335°
2026-04-28 12:03 40.41346 29.24419 32087 ft 461 kts 335°
2026-04-28 12:03 40.51728 29.17536 32104 ft 459 kts 328°
2026-04-28 12:04 40.73346 28.99727 32125 ft 458 kts 328°
2026-04-28 12:04 40.94941 28.82058 32120 ft 455 kts 327°
2026-04-28 12:05 41.03959 28.70295 32122 ft 456 kts 313°
2026-04-28 12:05 41.12639 28.58069 32142 ft 455 kts 314°
2026-04-28 12:05 41.30233 28.34204 32135 ft 454 kts 325°
2026-04-28 12:06 41.51605 28.16346 32140 ft 453 kts 327°
2026-04-28 12:06 41.72711 27.98312 32140 ft 449 kts 327°
2026-04-28 12:07 41.93788 27.80206 32130 ft 449 kts 326°
2026-04-28 12:07 42.03037 27.69122 32131 ft 448 kts 313°
2026-04-28 12:07 42.11670 27.57055 32124 ft 447 kts 314°
2026-04-28 12:08 42.29012 27.33190 32137 ft 444 kts 314°
2026-04-28 12:08 42.46223 27.09221 32139 ft 443 kts 314°
2026-04-28 12:09 42.63341 26.85136 32118 ft 443 kts 314°
2026-04-28 12:09 42.80432 26.61098 32105 ft 440 kts 314°
2026-04-28 12:10 42.97188 26.37094 32085 ft 440 kts 313°
2026-04-28 12:10 43.14043 26.12891 32081 ft 438 kts 313°
2026-04-28 12:11 43.30779 25.88596 32090 ft 438 kts 313°
2026-04-28 12:11 43.47445 25.64155 32084 ft 437 kts 312°
2026-04-28 12:12 43.64369 25.40110 32097 ft 439 kts 323°
2026-04-28 12:12 43.85065 25.21951 32093 ft 440 kts 324°
2026-04-28 12:13 44.05470 25.03672 32107 ft 440 kts 324°
2026-04-28 12:13 44.25851 24.85295 32107 ft 438 kts 324°
2026-04-28 12:14 44.46246 24.66727 32119 ft 436 kts 324°
2026-04-28 12:14 44.66581 24.48104 32109 ft 435 kts 324°
2026-04-28 12:15 44.86792 24.29397 32092 ft 434 kts 323°
2026-04-28 12:15 45.06701 24.10850 32100 ft 432 kts 323°
2026-04-28 12:16 45.26660 23.92074 32107 ft 430 kts 323°
2026-04-28 12:16 45.46529 23.73218 32092 ft 428 kts 323°
2026-04-28 12:17 45.66324 23.54306 32112 ft 428 kts 323°
2026-04-28 12:17 45.86218 23.35579 32130 ft 427 kts 325°
2026-04-28 12:18 46.06401 23.18122 32127 ft 425 kts 325°
2026-04-28 12:18 46.26618 23.00432 32120 ft 424 kts 325°
2026-04-28 12:19 46.46787 22.82664 32120 ft 424 kts 325°
2026-04-28 12:19 46.66888 22.64761 32128 ft 423 kts 324°
2026-04-28 12:20 46.86944 22.46806 32142 ft 422 kts 324°
2026-04-28 12:20 47.04627 22.30780 32142 ft 421 kts 324°
2026-04-28 12:21 47.09613 22.26256 32141 ft 419 kts 324°
2026-04-28 12:21 47.14556 22.21765 32174 ft 417 kts 324°
2026-04-28 12:22 47.19475 22.17277 32178 ft 415 kts 324°
2026-04-28 12:22 47.24357 22.12814 32185 ft 415 kts 323°
2026-04-28 12:23 47.29263 22.08297 32192 ft 416 kts 323°
2026-04-28 12:23 47.34166 22.03776 32191 ft 416 kts 323°
2026-04-28 12:24 47.38282 21.99986 32228 ft 416 kts 323°
2026-04-28 12:24 47.43175 21.95477 32238 ft 417 kts 323°
2026-04-28 12:25 47.45617 21.93227 31805 ft 409 kts 323°
2026-04-28 12:25 47.48022 21.91009 30958 ft 407 kts 323°
2026-04-28 12:25 47.50430 21.88777 29798 ft 410 kts 323°
2026-04-28 12:25 47.52868 21.86507 28379 ft 417 kts 324°
2026-04-28 12:26 47.55344 21.84198 26966 ft 424 kts 324°
2026-04-28 12:26 47.57855 21.81859 25747 ft 427 kts 324°
2026-04-28 12:26 47.60272 21.79620 25006 ft 421 kts 325°
2026-04-28 12:26 47.62738 21.77347 24282 ft 414 kts 325°
2026-04-28 12:27 47.65147 21.75124 23476 ft 410 kts 325°
2026-04-28 12:27 47.67592 21.72858 22531 ft 408 kts 325°
2026-04-28 12:27 47.69945 21.70671 21737 ft 403 kts 325°
2026-04-28 12:27 47.72308 21.68470 20946 ft 398 kts 326°
2026-04-28 12:28 47.74642 21.66290 20128 ft 395 kts 326°
2026-04-28 12:28 47.76956 21.64125 19347 ft 391 kts 326°
2026-04-28 12:28 47.79284 21.62066 18612 ft 389 kts 332°
2026-04-28 12:28 47.81781 21.60535 17817 ft 387 kts 338°
2026-04-28 12:29 47.86840 21.57994 16258 ft 380 kts 339°
2026-04-28 12:29 47.89348 21.56774 15507 ft 377 kts 339°
2026-04-28 12:29 47.91830 21.55560 14759 ft 374 kts 340°
2026-04-28 12:30 47.94294 21.54337 14017 ft 372 kts 339°
2026-04-28 12:30 47.96736 21.53106 13217 ft 369 kts 339°
2026-04-28 12:30 47.99148 21.51877 12479 ft 364 kts 339°
2026-04-28 12:30 48.01530 21.50654 11766 ft 360 kts 339°
2026-04-28 12:31 48.03886 21.49438 11056 ft 356 kts 339°
2026-04-28 12:31 48.06204 21.48239 10569 ft 347 kts 339°
2026-04-28 12:31 48.08437 21.47085 10355 ft 330 kts 339°
2026-04-28 12:31 48.10546 21.45994 10245 ft 312 kts 339°
2026-04-28 12:32 48.12534 21.44970 10197 ft 293 kts 339°
2026-04-28 12:32 48.14402 21.44010 10176 ft 275 kts 339°
2026-04-28 12:32 48.16154 21.43107 10166 ft 259 kts 339°
2026-04-28 12:32 48.17819 21.42240 10175 ft 257 kts 339°
2026-04-28 12:33 48.19515 21.41353 10169 ft 258 kts 339°
2026-04-28 12:33 48.21214 21.40464 10158 ft 259 kts 339°
2026-04-28 12:33 48.22920 21.39605 10162 ft 260 kts 342°
2026-04-28 12:33 48.24678 21.38947 10162 ft 261 kts 346°
2026-04-28 12:34 48.26450 21.38384 10196 ft 260 kts 346°
2026-04-28 12:34 48.28225 21.37846 10186 ft 261 kts 347°
2026-04-28 12:34 48.30001 21.37316 10210 ft 260 kts 347°
2026-04-28 12:34 48.31776 21.36794 10195 ft 261 kts 347°
2026-04-28 12:35 48.33569 21.36264 9990 ft 265 kts 347°
2026-04-28 12:35 48.35399 21.35710 9367 ft 270 kts 347°
2026-04-28 12:35 48.37246 21.35141 8816 ft 272 kts 347°
2026-04-28 12:35 48.39099 21.34562 8311 ft 271 kts 347°
2026-04-28 12:36 48.40947 21.33985 7816 ft 271 kts 347°
2026-04-28 12:36 48.42789 21.33413 7339 ft 270 kts 347°
2026-04-28 12:36 48.44590 21.32682 6843 ft 267 kts 332°
2026-04-28 12:36 48.45959 21.30887 6494 ft 261 kts 301°
2026-04-28 12:37 48.46596 21.28391 6263 ft 254 kts 287°
2026-04-28 12:37 48.47011 21.25812 5893 ft 253 kts 286°
2026-04-28 12:37 48.47434 21.23265 5512 ft 245 kts 294°
2026-04-28 12:37 48.48236 21.21060 5206 ft 240 kts 313°
2026-04-28 12:38 48.49493 21.19508 4964 ft 231 kts 340°
2026-04-28 12:38 48.51077 21.19124 4364 ft 237 kts
2026-04-28 12:38 48.52725 21.19418 3766 ft 239 kts
2026-04-28 12:38 48.54357 21.19881 3210 ft 236 kts 15°
2026-04-28 12:39 48.55870 21.20482 2905 ft 211 kts 14°
2026-04-28 12:39 48.57190 21.20933 2738 ft 180 kts 14°
2026-04-28 12:39 48.58338 21.21334 2526 ft 158 kts 14°
2026-04-28 12:39 48.59351 21.21694 2312 ft 137 kts 13°
2026-04-28 12:40 48.60244 21.21995 1929 ft 135 kts 14°
2026-04-28 12:40 48.61176 21.22333 1618 ft 143 kts 13°
2026-04-28 12:40 48.62202 21.22690 1427 ft 156 kts 14°
2026-04-28 12:40 48.63203 21.23036 1209 ft 140 kts 13°
2026-04-28 12:41 48.64141 21.23357 954 ft 136 kts 16°
2026-04-28 12:41 48.65063 21.23683 778 ft 137 kts 17°
2026-04-28 12:41 48.65933 21.23996 756 ft 113 kts 14°
2026-04-28 12:41 48.66534 21.24204 754 ft 66 kts 14°
2026-04-28 12:42 48.66889 21.24321 759 ft 50 kts 13°
2026-04-28 12:42 48.67165 21.24418 760 ft 20 kts 13°
2026-04-28 12:42 48.67238 21.24333 754 ft 15 kts 291°
2026-04-28 12:42 48.67264 21.24181 754 ft 15 kts 283°
2026-04-28 12:43 48.67287 21.24037 758 ft 10 kts 283°
2026-04-28 12:43 48.67299 21.23956 758 ft 6 kts 283°
2026-04-28 12:43 48.67325 21.23907 754 ft 6 kts 324°
2026-04-28 12:43 48.67338 21.23890 758 ft 1 kts 299°
2026-04-28 12:44 48.67338 21.23880 758 ft 2 kts 267°
2026-04-28 12:44 48.67335 21.23870 754 ft 1 kts 249°
2026-04-28 12:44 48.67331 21.23855 756 ft 1 kts 243°
2026-04-28 12:44 48.67329 21.23850 758 ft 0 kts 240°